START_TIME,STEP,MOV.,P11,t_acc.,P23,t_acc.,P27,t_acc.,A4,t_acc.
1981-08-24 06:06:24.180 ,0,0,0.,4.8,0.,4.8,0.,4.8,0.,4.8
1981-08-24 06:06:28.980 ,0,0,0.,4.8,0.,4.8,0.,4.8,0.,4.8
1981-08-24 06:06:33.780 ,0,0,0.,4.8,0.,4.8,0.,4.8,0.,4.8
1981-08-24 06:06:38.580 ,0,0,0.,4.8,0.,4.8,0.,4.8,0.,4.8
1981-08-24 06:06:43.380 ,0,0,0.,4.8,0.,4.8,0.,4.8,0.,4.8
1981-08-24 06:06:48.180 ,6,0,0.,4.8,0.,4.8,0.,4.8,0.,4.8
1981-08-24 06:06:52.980 ,6,0,0.,4.8,0.,4.8,0.,4.8,0.,4.8
1981-08-24 06:06:57.780 ,6,0,0.,4.8,0.,4.8,0.,4.8,0.,4.8
1981-08-24 06:07:02.580 ,6,0,0.,4.8,0.,4.8,0.,4.8,0.,4.8
1981-08-24 06:07:07.380 ,6,0,0.,4.8,0.,4.8,0.,4.8,0.,4.8
1981-08-24 06:07:12.180 ,5,0,0.,4.8,0.,4.8,0.,4.8,0.,4.8
1981-08-24 06:07:16.980 ,5,0,0.,4.8,0.,4.8,0.,4.8,0.,4.8
1981-08-24 06:07:21.780 ,5,0,0.,4.8,0.,4.8,0.,4.8,0.,4.8
1981-08-24 06:07:26.580 ,5,0,0.,4.8,0.,4.8,0.,4.8,0.,4.8
1981-08-24 06:07:31.380 ,5,0,0.,4.8,0.,4.8,0.,4.8,0.,4.8
1981-08-24 06:07:36.180 ,4,0,0.,4.8,0.,4.8,0.,4.8,0.,4.8
1981-08-24 06:07:40.980 ,4,0,0.,4.8,0.,4.8,0.,4.8,0.,4.8
1981-08-24 06:07:45.780 ,4,0,0.,4.8,0.,4.8,0.,4.8,0.,4.8
1981-08-24 06:07:50.580 ,4,0,0.,4.8,0.,4.8,0.,4.8,0.,4.8
1981-08-24 06:07:55.380 ,4,0,0.,4.8,0.,4.8,0.,4.8,0.,4.8
1981-08-24 06:08:00.180 ,3,0,0.,4.8,0.,4.8,0.,4.8,0.,4.8
1981-08-24 06:08:04.980 ,3,0,0.,4.8,0.,4.8,0.,4.8,0.,4.8
1981-08-24 06:08:09.780 ,3,0,0.,4.8,0.,4.8,0.,4.8,0.,4.8
1981-08-24 06:08:14.580 ,3,0,0.,4.8,0.,4.8,0.,4.8,0.,4.8
1981-08-24 06:08:19.380 ,3,0,0.,4.8,0.,4.8,0.,4.8,0.,4.8
1981-08-24 06:08:24.180 ,2,0,0.,4.8,0.,4.8,0.,4.8,0.,4.8
1981-08-24 06:08:28.980 ,2,0,0.,4.8,0.,4.8,0.,4.8,0.,4.8
1981-08-24 06:08:33.780 ,2,0,0.,4.8,0.,4.8,0.,4.8,0.,4.8
1981-08-24 06:08:38.580 ,2,0,0.,4.8,0.,4.8,0.,4.8,0.,4.8
1981-08-24 06:08:43.380 ,2,0,0.,4.8,0.,4.8,0.,4.8,0.,4.8
1981-08-24 06:08:48.170 ,1,0,0.,4.8,0.,4.8,0.,4.8,0.,4.8
1981-08-24 06:08:52.980 ,1,0,0.,4.8,0.,4.8,0.,4.8,0.,4.8
1981-08-24 06:08:57.780 ,1,0,0.,4.8,0.,4.8,0.,4.8,0.,4.8
1981-08-24 06:09:02.580 ,1,0,0.,4.8,0.,4.8,0.,4.8,0.,4.8
1981-08-24 06:09:07.380 ,1,0,0.,4.8,0.,4.8,0.,4.8,0.,4.8
1981-08-24 06:09:12.170 ,0,0,0.,4.8,0.,4.8,0.,4.8,0.,4.8
1981-08-24 06:09:16.980 ,0,0,0.,4.8,0.,4.8,0.,4.8,0.,4.8
1981-08-24 06:09:21.780 ,0,0,0.,4.8,0.,4.8,0.,4.8,0.,4.8
1981-08-24 06:09:26.580 ,0,0,0.,4.8,0.,4.8,0.,4.8,0.,4.8
1981-08-24 06:09:31.380 ,0,0,0.,4.8,0.,4.8,0.,4.8,0.,4.8
1981-08-24 06:09:36.170 ,0,0,0.,4.8,0.,4.8,0.,4.8,0.,4.8
1981-08-24 06:09:40.980 ,0,0,0.,4.8,0.,4.8,0.,4.8,0.,4.8
1981-08-24 06:09:45.780 ,0,0,0.,4.8,0.,4.8,0.,4.8,0.,4.8
1981-08-24 06:09:50.580 ,0,0,0.,4.8,0.,4.8,0.,4.8,0.,4.8
1981-08-24 06:09:55.380 ,0,0,0.,4.8,0.,4.8,0.,4.8,0.,4.8
1981-08-24 06:10:00.170 ,1,0,0.,4.8,0.,4.8,0.,4.8,0.,4.8
1981-08-24 06:10:04.980 ,1,0,0.,4.8,0.,4.8,0.,4.8,0.,4.8
1981-08-24 06:10:09.780 ,1,0,0.,4.8,0.,4.8,0.,4.8,0.,4.8
1981-08-24 06:10:14.580 ,1,0,0.,4.8,0.,4.8,0.,4.8,0.,4.8
1981-08-24 06:10:19.380 ,1,0,0.,4.8,0.,4.8,0.,4.8,0.,4.8
1981-08-24 06:10:24.170 ,2,0,0.,4.8,0.,4.8,0.,4.8,0.,4.8
1981-08-24 06:10:28.980 ,2,0,0.,4.8,0.,4.8,0.,4.8,0.,4.8
1981-08-24 06:10:33.780 ,2,0,0.,4.8,0.,4.8,0.,4.8,0.,4.8
1981-08-24 06:10:38.580 ,2,0,0.,4.8,0.,4.8,0.,4.8,0.,4.8
1981-08-24 06:10:43.380 ,2,0,0.,4.8,0.,4.8,0.,4.8,0.,4.8
1981-08-24 06:10:48.170 ,0,0,0.,4.8,0.,4.8,0.,4.8,0.,4.8
1981-08-24 06:10:52.980 ,0,0,0.,4.8,0.,4.8,0.,4.8,0.,4.8
1981-08-24 06:10:57.780 ,0,0,0.,4.8,0.,4.8,0.,4.8,0.,4.8
1981-08-24 06:11:02.580 ,0,0,0.,4.8,0.,4.8,0.,4.8,0.,4.8
1981-08-24 06:11:07.380 ,0,0,0.,4.8,0.,4.8,0.,4.8,0.,4.8
1981-08-24 06:15:34.380 ,0,0,,0,,0,,0,,0
1981-08-24 06:15:39.180 ,0,0,,0,,0,,0,,0
1981-08-24 06:15:43.980 ,0,0,,0,,0,,0,,0
1981-08-24 06:15:48.780 ,0,0,,0,,0,,0,,0
1981-08-24 06:15:53.580 ,0,0,,0,,0,,0,,0
1981-08-24 06:15:36.170 ,0,0,0.,4.8,0.,4.8,0.,4.8,0.,4.8
1981-08-24 06:15:40.980 ,0,0,0.,4.8,0.,4.8,0.,4.8,0.,4.8
1981-08-24 06:15:45.780 ,0,0,0.,4.8,0.,4.8,0.,4.8,0.,4.8
1981-08-24 06:15:50.580 ,0,0,0.,4.8,0.,4.8,0.,4.8,0.,4.8
1981-08-24 06:15:55.380 ,0,0,0.,4.8,0.,4.8,0.,4.8,0.,4.8
1981-08-24 06:16:00.170 ,3,0,0.,4.8,0.,4.8,0.,4.8,0.,4.8
1981-08-24 06:16:04.980 ,3,0,0.,4.8,0.,4.8,0.,4.8,0.,4.8
1981-08-24 06:16:09.780 ,3,0,0.,4.8,0.,4.8,0.,4.8,0.,4.8
1981-08-24 06:16:14.580 ,3,0,0.,4.8,0.,4.8,0.,4.8,0.,4.8
1981-08-24 06:16:19.380 ,3,0,0.,4.8,0.,4.8,0.,4.8,0.,4.8
1981-08-24 06:16:24.170 ,0,0,0.,4.8,0.,4.8,0.,4.8,0.,4.8
1981-08-24 06:16:28.980 ,0,0,0.,4.8,0.,4.8,0.,4.8,0.,4.8
1981-08-24 06:16:33.780 ,0,0,0.,4.8,0.,4.8,0.,4.8,0.,4.8
1981-08-24 06:16:38.580 ,0,0,0.,4.8,0.,4.8,0.,4.8,0.,4.8
1981-08-24 06:16:43.380 ,0,0,,0,,0,,0,,0
1981-08-24 06:30:24.170 ,4,0,0.,4.8,0.,4.8,0.,4.8,0.,4.8
1981-08-24 06:30:28.970 ,4,0,0.,4.8,0.,4.8,0.,4.8,0.,4.8
1981-08-24 06:30:33.770 ,4,0,0.,4.8,0.,4.8,0.,4.8,0.,4.8
1981-08-24 06:30:38.570 ,4,0,0.,4.8,0.,4.8,0.,4.8,0.,4.8
1981-08-24 06:30:43.370 ,4,0,0.,4.8,0.,4.8,0.,4.8,0.,4.8
1981-08-24 06:30:48.170 ,5,0,0.,4.8,0.,4.8,0.,4.8,0.,4.8
1981-08-24 06:30:52.970 ,5,0,0.,4.8,0.,4.8,0.,4.8,0.,4.8
1981-08-24 06:30:57.770 ,5,0,0.,4.8,0.,4.8,0.,4.8,0.,4.8
1981-08-24 06:31:02.570 ,5,0,0.,4.8,0.,4.8,0.,4.8,0.,4.8
1981-08-24 06:31:07.370 ,5,0,0.,4.8,0.,4.8,0.,4.8,0.,4.8
1981-08-24 06:31:12.170 ,6,0,0.,4.8,0.,4.8,0.,4.8,0.,4.8
1981-08-24 06:31:16.970 ,6,0,0.,4.8,0.,4.8,0.,4.8,0.,4.8
1981-08-24 06:31:21.770 ,6,0,0.,4.8,0.,4.8,0.,4.8,0.,4.8
1981-08-24 06:31:26.570 ,6,0,0.,4.8,0.,4.8,0.,4.8,0.,4.8
1981-08-24 06:31:31.370 ,6,0,0.,4.8,0.,4.8,0.,4.8,0.,4.8
1981-08-24 06:31:36.170 ,7,0,0.,4.8,0.,4.8,0.,4.8,0.,4.8
1981-08-24 06:31:40.970 ,7,0,0.,4.8,0.,4.8,0.,4.8,0.,4.8
1981-08-24 06:31:45.770 ,7,0,0.,4.8,0.,4.8,0.,4.8,0.,4.8
1981-08-24 06:31:50.570 ,7,0,0.,4.8,0.,4.8,0.,4.8,0.,4.8
1981-08-24 06:31:55.370 ,7,0,0.,4.8,0.,4.8,0.,4.8,0.,4.8
1981-08-24 06:32:00.170 ,7,0,0.,4.8,0.,4.8,0.,4.8,0.,4.8
1981-08-24 06:32:04.970 ,7,0,0.,4.8,0.,4.8,0.,4.8,0.,4.8
1981-08-24 06:32:09.770 ,7,0,0.,4.8,0.,4.8,0.,4.8,0.,4.8
1981-08-24 06:32:14.570 ,7,0,0.,4.8,0.,4.8,0.,4.8,0.,4.8
1981-08-24 06:32:19.370 ,7,0,0.,4.8,0.,4.8,0.,4.8,0.,4.8
1981-08-24 06:32:24.170 ,7,0,0.,4.8,0.,4.8,0.,4.8,0.,4.8
1981-08-24 06:32:28.970 ,7,0,0.,4.8,0.,4.8,0.,4.8,0.,4.8
1981-08-24 06:32:33.770 ,7,0,0.,4.8,0.,4.8,0.,4.8,0.,4.8
1981-08-24 06:32:38.570 ,7,0,0.,4.8,0.,4.8,0.,4.8,0.,4.8
1981-08-24 06:32:43.370 ,7,0,0.,4.8,0.,4.8,0.,4.8,0.,4.8
1981-08-24 06:32:48.170 ,6,0,0.,4.8,0.,4.8,0.,4.8,0.,4.8
1981-08-24 06:32:52.970 ,6,0,0.,4.8,0.,4.8,0.,4.8,0.,4.8
1981-08-24 06:32:57.770 ,6,0,0.,4.8,0.,4.8,0.,4.8,0.,4.8
1981-08-24 06:33:02.570 ,6,0,0.,4.8,0.,4.8,0.,4.8,0.,4.8
1981-08-24 06:33:07.370 ,6,0,0.,4.8,0.,4.8,0.,4.8,0.,4.8
1981-08-24 06:33:12.170 ,6,0,0.,4.8,0.,4.8,0.,4.8,0.,4.8
1981-08-24 06:33:16.970 ,6,0,0.,4.8,0.,4.8,0.,4.8,0.,4.8
1981-08-24 06:33:21.770 ,6,0,0.,4.8,0.,4.8,0.,4.8,0.,4.8
1981-08-24 06:33:26.570 ,6,0,0.,4.8,0.,4.8,0.,4.8,0.,4.8
1981-08-24 06:33:31.370 ,6,0,0.,4.8,0.,4.8,0.,4.8,0.,4.8
1981-08-24 06:33:36.170 ,5,0,0.,4.8,0.,4.8,0.,4.8,0.,4.8
1981-08-24 06:33:40.970 ,5,0,0.,4.8,0.,4.8,0.,4.8,0.,4.8
1981-08-24 06:33:45.770 ,5,0,0.,4.8,0.,4.8,0.,4.8,0.,4.8
1981-08-24 06:33:50.570 ,5,0,0.,4.8,0.,4.8,0.,4.8,0.,4.8
1981-08-24 06:33:55.370 ,5,0,0.,4.8,0.,4.8,0.,4.8,0.,4.8
1981-08-24 06:34:00.170 ,5,0,0.,4.8,0.,4.8,0.,4.8,0.,4.8
1981-08-24 06:34:04.970 ,5,0,0.,4.8,0.,4.8,0.,4.8,0.,4.8
1981-08-24 06:34:09.770 ,5,0,0.,4.8,0.,4.8,0.,4.8,0.,4.8
1981-08-24 06:34:14.570 ,5,0,0.,4.8,0.,4.8,0.,4.8,0.,4.8
1981-08-24 06:34:19.370 ,5,0,0.,4.8,0.,4.8,0.,4.8,0.,4.8
1981-08-24 06:34:24.170 ,4,0,0.,4.8,0.,4.8,0.,4.8,0.,4.8
1981-08-24 06:34:28.970 ,4,0,0.,4.8,0.,4.8,0.,4.8,0.,4.8
1981-08-24 06:34:33.770 ,4,0,0.,4.8,0.,4.8,0.,4.8,0.,4.8
1981-08-24 06:34:38.570 ,4,0,0.,4.8,0.,4.8,0.,4.8,0.,4.8
1981-08-24 06:34:43.370 ,4,0,0.,4.8,0.,4.8,0.,4.8,0.,4.8
1981-08-24 06:34:48.170 ,4,0,0.,4.8,0.,4.8,0.,4.8,0.,4.8
1981-08-24 06:34:52.970 ,4,0,0.,4.8,0.,4.8,0.,4.8,0.,4.8
1981-08-24 06:34:57.770 ,4,0,0.,4.8,0.,4.8,0.,4.8,0.,4.8
1981-08-24 06:35:02.570 ,4,0,0.,4.8,0.,4.8,0.,4.8,0.,4.8
1981-08-24 06:35:07.370 ,4,0,0.,4.8,0.,4.8,0.,4.8,0.,4.8
1981-08-24 06:35:12.170 ,3,0,0.,4.8,0.,4.8,0.,4.8,0.,4.8
1981-08-24 06:35:16.970 ,3,0,0.,4.8,0.,4.8,0.,4.8,0.,4.8
1981-08-24 06:35:21.770 ,3,0,0.,4.8,0.,4.8,0.,4.8,0.,4.8
1981-08-24 06:35:26.570 ,3,0,0.,4.8,0.,4.8,0.,4.8,0.,4.8
1981-08-24 06:35:31.370 ,3,0,0.,4.8,0.,4.8,0.,4.8,0.,4.8
1981-08-24 06:35:36.170 ,3,0,0.,4.8,0.,4.8,0.,4.8,0.,4.8
1981-08-24 06:35:40.970 ,3,0,0.,4.8,0.,4.8,0.,4.8,0.,4.8
1981-08-24 06:35:45.770 ,3,0,0.,4.8,0.,4.8,0.,4.8,0.,4.8
1981-08-24 06:35:50.570 ,3,0,0.,4.8,0.,4.8,0.,4.8,0.,4.8
1981-08-24 06:35:55.370 ,3,0,0.,4.8,0.,4.8,0.,4.8,0.,4.8
1981-08-24 06:36:00.170 ,2,0,0.,4.8,0.,4.8,0.,4.8,0.,4.8
1981-08-24 06:36:04.970 ,2,0,0.,4.8,0.,4.8,0.,4.8,0.,4.8
1981-08-24 06:36:09.770 ,2,0,0.,4.8,0.,4.8,0.,4.8,0.,4.8
1981-08-24 06:36:14.570 ,2,0,0.,4.8,0.,4.8,0.,4.8,0.,4.8
1981-08-24 06:36:19.370 ,2,0,0.,4.8,0.,4.8,0.,4.8,0.,4.8
1981-08-24 06:36:24.170 ,2,0,0.,4.8,0.,4.8,0.,4.8,0.,4.8
1981-08-24 06:36:28.970 ,2,0,0.,4.8,0.,4.8,0.,4.8,0.,4.8
1981-08-24 06:36:33.770 ,2,0,0.,4.8,0.,4.8,0.,4.8,0.,4.8
1981-08-24 06:36:38.570 ,2,0,0.,4.8,0.,4.8,0.,4.8,0.,4.8
1981-08-24 06:36:43.370 ,2,0,0.,4.8,0.,4.8,0.,4.8,0.,4.8
1981-08-24 06:36:48.170 ,1,0,0.,4.8,0.,4.8,0.,4.8,0.,4.8
1981-08-24 06:36:52.970 ,1,0,0.,4.8,0.,4.8,0.,4.8,0.,4.8
1981-08-24 06:36:57.770 ,1,0,0.,4.8,0.,4.8,0.,4.8,0.,4.8
1981-08-24 06:37:02.570 ,1,0,0.,4.8,0.,4.8,0.,4.8,0.,4.8
1981-08-24 06:37:07.370 ,1,0,0.,4.8,0.,4.8,0.,4.8,0.,4.8
1981-08-24 06:37:12.170 ,1,0,0.,4.8,0.,4.8,0.,4.8,0.,4.8
1981-08-24 06:37:16.970 ,1,0,0.,4.8,0.,4.8,0.,4.8,0.,4.8
1981-08-24 06:37:21.770 ,1,0,0.,4.8,0.,4.8,0.,4.8,0.,4.8
1981-08-24 06:37:26.570 ,1,0,0.,4.8,0.,4.8,0.,4.8,0.,4.8
1981-08-24 06:37:31.370 ,1,0,0.,4.8,0.,4.8,0.,4.8,0.,4.8
1981-08-24 06:37:36.170 ,0,0,0.,4.8,0.,4.8,0.,4.8,0.,4.8
1981-08-24 06:37:40.970 ,0,0,0.,4.8,0.,4.8,0.,4.8,0.,4.8
1981-08-24 06:37:45.770 ,0,0,0.,4.8,0.,4.8,0.,4.8,0.,4.8
1981-08-24 06:37:50.570 ,0,0,0.,4.8,0.,4.8,0.,4.8,0.,4.8
1981-08-24 06:37:55.370 ,0,0,0.,4.8,0.,4.8,0.,4.8,0.,4.8
1981-08-24 06:38:00.170 ,0,0,0.,4.8,0.,4.8,0.,4.8,0.,4.8
1981-08-24 06:38:04.970 ,0,0,0.,4.8,0.,4.8,0.,4.8,0.,4.8
1981-08-24 06:38:09.770 ,0,0,0.,4.8,0.,4.8,0.,4.8,0.,4.8
1981-08-24 06:38:14.570 ,0,0,0.,4.8,0.,4.8,0.,4.8,0.,4.8
1981-08-24 06:38:19.370 ,0,0,0.,4.8,0.,4.8,0.,4.8,0.,4.8
1981-08-24 06:38:24.170 ,0,0,0.,4.8,0.,4.8,0.,4.8,0.,4.8
1981-08-24 06:38:28.970 ,0,0,0.,4.8,0.,4.8,0.,4.8,0.,4.8
1981-08-24 06:38:33.770 ,0,0,0.,4.8,0.,4.8,0.,4.8,0.,4.8
1981-08-24 06:38:38.570 ,0,0,0.,4.8,0.,4.8,0.,4.8,0.,4.8
1981-08-24 06:38:43.370 ,0,0,0.,4.8,0.,4.8,0.,4.8,0.,4.8
1981-08-24 06:38:48.170 ,0,0,0.,4.8,0.,4.8,0.,4.8,0.,4.8
1981-08-24 06:38:52.970 ,0,0,0.,4.8,0.,4.8,0.,4.8,0.,4.8
1981-08-24 06:38:57.770 ,0,0,0.,4.8,0.,4.8,0.,4.8,1.,4.8
1981-08-24 06:39:02.570 ,0,0,0.,4.8,0.,4.8,0.,4.8,0.,4.8
1981-08-24 06:39:07.370 ,0,0,0.,4.8,0.,4.8,0.,4.8,0.,4.8
1981-08-24 06:39:12.170 ,1,0,0.,4.8,0.,4.8,0.,4.8,0.,4.8
1981-08-24 06:39:16.970 ,1,0,0.,4.8,0.,4.8,0.,4.8,0.,4.8
1981-08-24 06:39:21.770 ,1,0,0.,4.8,0.,4.8,0.,4.8,0.,4.8
1981-08-24 06:39:26.570 ,1,0,0.,4.8,0.,4.8,0.,4.8,0.,4.8
1981-08-24 06:39:31.370 ,1,0,0.,4.8,0.,4.8,0.,4.8,0.,4.8
1981-08-24 06:39:36.170 ,1,0,0.,4.8,0.,4.8,0.,4.8,0.,4.8
1981-08-24 06:39:40.970 ,1,0,0.,4.8,0.,4.8,0.,4.8,0.,4.8
1981-08-24 06:39:45.770 ,1,0,0.,4.8,0.,4.8,0.,4.8,0.,4.8
1981-08-24 06:39:50.570 ,1,0,0.,4.8,0.,4.8,0.,4.8,0.,4.8
1981-08-24 06:39:55.370 ,1,0,0.,4.8,0.,4.8,0.,4.8,0.,4.8
1981-08-24 06:40:00.170 ,2,0,0.,4.8,0.,4.8,0.,4.8,0.,4.8
1981-08-24 06:40:04.970 ,2,0,0.,4.8,0.,4.8,0.,4.8,0.,4.8
1981-08-24 06:40:09.770 ,2,0,0.,4.8,0.,4.8,0.,4.8,0.,4.8
1981-08-24 06:40:14.570 ,2,0,0.,4.8,0.,4.8,0.,4.8,0.,4.8
1981-08-24 06:40:19.370 ,2,0,0.,4.8,0.,4.8,0.,4.8,0.,4.8
1981-08-24 06:40:24.170 ,2,0,0.,4.8,0.,4.8,0.,4.8,0.,4.8
1981-08-24 06:40:28.970 ,2,0,0.,4.8,0.,4.8,0.,4.8,0.,4.8
1981-08-24 06:40:33.770 ,2,0,0.,4.8,0.,4.8,0.,4.8,0.,4.8
1981-08-24 06:40:38.570 ,2,0,0.,4.8,0.,4.8,0.,4.8,0.,4.8
1981-08-24 06:40:43.370 ,2,0,0.,4.8,0.,4.8,0.,4.8,0.,4.8
1981-08-24 06:40:48.170 ,3,0,0.,4.8,0.,4.8,0.,4.8,0.,4.8
1981-08-24 06:40:52.970 ,3,0,0.,4.8,0.,4.8,0.,4.8,0.,4.8
1981-08-24 06:40:57.770 ,3,0,0.,4.8,0.,4.8,0.,4.8,0.,4.8
1981-08-24 06:41:02.570 ,3,0,0.,4.8,0.,4.8,0.,4.8,0.,4.8
1981-08-24 06:41:07.370 ,3,0,0.,4.8,0.,4.8,0.,4.8,0.,4.8
1981-08-24 06:41:12.170 ,3,0,0.,4.8,0.,4.8,0.,4.8,0.,4.8
1981-08-24 06:41:16.970 ,3,0,0.,4.8,0.,4.8,0.,4.8,0.,4.8
1981-08-24 06:41:21.770 ,3,0,0.,4.8,0.,4.8,0.,4.8,0.,4.8
1981-08-24 06:41:26.570 ,3,0,0.,4.8,0.,4.8,0.,4.8,0.,4.8
1981-08-24 06:41:31.370 ,3,0,0.,4.8,0.,4.8,0.,4.8,0.,4.8
1981-08-24 06:41:36.170 ,4,0,0.,4.8,0.,4.8,0.,4.8,0.,4.8
1981-08-24 06:41:40.970 ,4,0,0.,4.8,0.,4.8,0.,4.8,0.,4.8
1981-08-24 06:41:45.770 ,4,0,0.,4.8,0.,4.8,0.,4.8,0.,4.8
1981-08-24 06:41:50.570 ,4,0,0.,4.8,0.,4.8,0.,4.8,0.,4.8
1981-08-24 06:41:55.370 ,4,0,0.,4.8,0.,4.8,0.,4.8,0.,4.8
1981-08-24 06:42:00.170 ,0,0,0.,4.8,0.,4.8,0.,4.8,0.,4.8
1981-08-24 06:42:04.970 ,0,0,0.,4.8,0.,4.8,0.,4.8,0.,4.8
1981-08-24 06:42:09.770 ,0,0,0.,4.8,0.,4.8,0.,4.8,0.,4.8
1981-08-24 06:42:14.570 ,0,0,0.,4.8,0.,4.8,0.,4.8,0.,4.8
1981-08-24 06:42:19.370 ,0,0,0.,4.8,0.,4.8,0.,4.8,0.,4.8
1981-08-24 06:42:28.370 ,0,0,,0,,0,,0,,0
1981-08-24 06:42:33.170 ,0,0,0.,4.8,0.,4.8,0.,4.8,0.,4.8
1981-08-24 06:42:37.970 ,0,0,0.,4.8,0.,4.8,0.,4.8,0.,4.8
1981-08-24 06:42:42.770 ,0,0,0.,4.8,0.,4.8,0.,4.8,0.,4.8
1981-08-24 06:42:47.570 ,0,0,0.,4.8,0.,4.8,0.,4.8,0.,4.8
1981-08-24 06:42:48.170 ,0,0,0.,4.8,0.,4.8,0.,4.8,0.,4.8
1981-08-24 06:42:52.970 ,0,0,0.,4.8,0.,4.8,0.,4.8,0.,4.8
1981-08-24 06:42:57.770 ,0,0,0.,4.8,0.,4.8,0.,4.8,0.,4.8
1981-08-24 06:43:02.570 ,0,0,0.,4.8,0.,4.8,0.,4.8,0.,4.8
1981-08-24 06:43:07.370 ,0,0,0.,4.8,0.,4.8,0.,4.8,0.,4.8
1981-08-24 06:43:12.170 ,6,0,0.,4.8,0.,4.8,0.,4.8,0.,4.8
1981-08-24 06:43:16.970 ,6,0,0.,4.8,0.,4.8,0.,4.8,0.,4.8
1981-08-24 06:43:21.770 ,6,0,0.,4.8,0.,4.8,0.,4.8,0.,4.8
1981-08-24 06:43:26.570 ,6,0,0.,4.8,0.,4.8,0.,4.8,0.,4.8
1981-08-24 06:43:31.370 ,6,0,0.,4.8,0.,4.8,0.,4.8,0.,4.8
1981-08-24 06:43:36.170 ,6,0,0.,4.8,0.,4.8,0.,4.8,0.,4.8
1981-08-24 06:43:40.970 ,6,0,0.,4.8,0.,4.8,0.,4.8,0.,4.8
1981-08-24 06:43:45.770 ,6,0,0.,4.8,0.,4.8,0.,4.8,0.,4.8
1981-08-24 06:43:50.570 ,6,0,0.,4.8,0.,4.8,0.,4.8,0.,4.8
1981-08-24 06:43:55.370 ,6,0,0.,4.8,0.,4.8,0.,4.8,0.,4.8
1981-08-24 06:44:00.170 ,7,0,0.,4.8,0.,4.8,0.,4.8,0.,4.8
1981-08-24 06:44:04.970 ,7,0,0.,4.8,0.,4.8,0.,4.8,0.,4.8
1981-08-24 06:44:09.770 ,7,0,0.,4.8,0.,4.8,0.,4.8,0.,4.8
1981-08-24 06:44:14.570 ,7,0,0.,4.8,0.,4.8,0.,4.8,0.,4.8
1981-08-24 06:44:19.370 ,7,0,0.,4.8,0.,4.8,0.,4.8,0.,4.8
1981-08-24 06:44:24.170 ,7,0,0.,4.8,0.,4.8,0.,4.8,0.,4.8
1981-08-24 06:44:28.970 ,7,0,0.,4.8,0.,4.8,0.,4.8,0.,4.8
1981-08-24 06:44:33.770 ,7,0,0.,4.8,0.,4.8,0.,4.8,0.,4.8
1981-08-24 06:44:38.570 ,7,0,0.,4.8,0.,4.8,0.,4.8,0.,4.8
1981-08-24 06:44:43.370 ,7,0,0.,4.8,0.,4.8,0.,4.8,0.,4.8
1981-08-24 06:44:48.170 ,7,0,0.,4.8,0.,4.8,0.,4.8,0.,4.8
1981-08-24 06:44:52.970 ,7,0,0.,4.8,0.,4.8,0.,4.8,0.,4.8
1981-08-24 06:44:57.770 ,7,0,0.,4.8,0.,4.8,0.,4.8,0.,4.8
1981-08-24 06:45:02.570 ,7,0,0.,4.8,0.,4.8,0.,4.8,0.,4.8
1981-08-24 06:45:07.370 ,7,0,0.,4.8,0.,4.8,0.,4.8,0.,4.8
1981-08-24 06:45:12.170 ,6,0,0.,4.8,0.,4.8,0.,4.8,0.,4.8
1981-08-24 06:45:16.970 ,6,0,0.,4.8,0.,4.8,0.,4.8,0.,4.8
1981-08-24 06:45:21.770 ,6,0,0.,4.8,0.,4.8,0.,4.8,0.,4.8
1981-08-24 06:45:26.570 ,6,0,0.,4.8,0.,4.8,0.,4.8,0.,4.8
1981-08-24 06:45:31.370 ,6,0,0.,4.8,0.,4.8,0.,4.8,0.,4.8
1981-08-24 06:45:36.170 ,5,0,0.,4.8,0.,4.8,0.,4.8,0.,4.8
1981-08-24 06:45:40.970 ,5,0,0.,4.8,0.,4.8,0.,4.8,0.,4.8
1981-08-24 06:45:45.770 ,5,0,0.,4.8,0.,4.8,0.,4.8,0.,4.8
1981-08-24 06:45:50.570 ,5,0,0.,4.8,0.,4.8,0.,4.8,0.,4.8
1981-08-24 06:45:55.370 ,5,0,0.,4.8,0.,4.8,0.,4.8,0.,4.8
1981-08-24 06:46:00.170 ,4,0,0.,4.8,0.,4.8,0.,4.8,0.,4.8
1981-08-24 06:46:04.970 ,4,0,0.,4.8,0.,4.8,0.,4.8,0.,4.8
1981-08-24 06:46:09.770 ,4,0,0.,4.8,0.,4.8,0.,4.8,0.,4.8
1981-08-24 06:46:14.570 ,4,0,0.,4.8,0.,4.8,0.,4.8,0.,4.8
1981-08-24 06:46:19.370 ,4,0,0.,4.8,0.,4.8,0.,4.8,0.,4.8
1981-08-24 06:46:24.170 ,3,0,0.,4.8,0.,4.8,0.,4.8,0.,4.8
1981-08-24 06:46:28.970 ,3,0,0.,4.8,0.,4.8,0.,4.8,0.,4.8
1981-08-24 06:46:33.770 ,3,0,0.,4.8,0.,4.8,0.,4.8,0.,4.8
1981-08-24 06:46:38.570 ,3,0,0.,4.8,0.,4.8,0.,4.8,0.,4.8
1981-08-24 06:46:43.370 ,3,0,0.,4.8,0.,4.8,0.,4.8,0.,4.8
1981-08-24 06:46:48.170 ,2,0,0.,4.8,0.,4.8,0.,4.8,0.,4.8
1981-08-24 06:46:52.970 ,2,0,0.,4.8,0.,4.8,0.,4.8,0.,4.8
1981-08-24 06:46:57.770 ,2,0,0.,4.8,0.,4.8,0.,4.8,0.,4.8
1981-08-24 06:47:02.570 ,2,0,0.,4.8,0.,4.8,0.,4.8,0.,4.8
1981-08-24 06:47:07.370 ,2,0,0.,4.8,0.,4.8,0.,4.8,0.,4.8
1981-08-24 06:47:12.170 ,1,0,0.,4.8,0.,4.8,0.,4.8,0.,4.8
1981-08-24 06:47:16.970 ,1,0,0.,4.8,0.,4.8,0.,4.8,0.,4.8
1981-08-24 06:47:21.770 ,1,0,0.,4.8,0.,4.8,0.,4.8,0.,4.8
1981-08-24 06:47:26.570 ,1,0,0.,4.8,0.,4.8,0.,4.8,0.,4.8
1981-08-24 06:47:31.370 ,1,0,0.,4.8,0.,4.8,0.,4.8,0.,4.8
1981-08-24 06:47:36.170 ,0,0,0.,4.8,0.,4.8,0.,4.8,0.,4.8
1981-08-24 06:47:40.970 ,0,0,0.,4.8,0.,4.8,0.,4.8,0.,4.8
1981-08-24 06:47:45.770 ,0,0,0.,4.8,0.,4.8,0.,4.8,0.,4.8
1981-08-24 06:47:50.570 ,0,0,0.,4.8,0.,4.8,0.,4.8,0.,4.8
1981-08-24 06:47:55.370 ,0,0,0.,4.8,0.,4.8,0.,4.8,0.,4.8
1981-08-24 06:48:00.170 ,0,0,0.,4.8,0.,4.8,0.,4.8,0.,4.8
1981-08-24 06:48:04.970 ,0,0,0.,4.8,0.,4.8,0.,4.8,0.,4.8
1981-08-24 06:48:09.770 ,0,0,0.,4.8,0.,4.8,0.,4.8,0.,4.8
1981-08-24 06:48:14.570 ,0,0,0.,4.8,0.,4.8,0.,4.8,0.,4.8
1981-08-24 06:48:19.370 ,0,0,0.,4.8,0.,4.8,0.,4.8,0.,4.8
1981-08-24 06:48:24.170 ,1,0,0.,4.8,0.,4.8,0.,4.8,0.,4.8
1981-08-24 06:48:28.970 ,1,0,0.,4.8,0.,4.8,0.,4.8,0.,4.8
1981-08-24 06:48:33.770 ,1,0,0.,4.8,0.,4.8,0.,4.8,0.,4.8
1981-08-24 06:48:38.570 ,1,0,0.,4.8,0.,4.8,0.,4.8,0.,4.8
1981-08-24 06:48:43.370 ,1,0,0.,4.8,0.,4.8,0.,4.8,0.,4.8
1981-08-24 06:48:48.170 ,2,0,0.,4.8,0.,4.8,0.,4.8,0.,4.8
1981-08-24 06:48:52.970 ,2,0,0.,4.8,0.,4.8,0.,4.8,0.,4.8
1981-08-24 06:48:57.770 ,2,0,0.,4.8,0.,4.8,0.,4.8,0.,4.8
1981-08-24 06:49:02.570 ,2,0,0.,4.8,0.,4.8,0.,4.8,0.,4.8
1981-08-24 06:49:07.370 ,2,0,0.,4.8,0.,4.8,0.,4.8,0.,4.8
1981-08-24 06:49:12.170 ,3,0,0.,4.8,0.,4.8,0.,4.8,0.,4.8
1981-08-24 06:49:16.970 ,3,0,0.,4.8,0.,4.8,0.,4.8,0.,4.8
1981-08-24 06:49:21.770 ,3,0,0.,4.8,0.,4.8,0.,4.8,0.,4.8
1981-08-24 06:49:26.570 ,3,0,0.,4.8,0.,4.8,0.,4.8,0.,4.8
1981-08-24 06:49:31.370 ,3,0,0.,4.8,0.,4.8,0.,4.8,0.,4.8
1981-08-24 06:49:36.170 ,4,0,0.,4.8,0.,4.8,0.,4.8,0.,4.8
1981-08-24 06:49:40.970 ,4,0,0.,4.8,0.,4.8,0.,4.8,0.,4.8
1981-08-24 06:49:45.770 ,4,0,0.,4.8,0.,4.8,0.,4.8,0.,4.8
1981-08-24 06:49:50.570 ,4,0,0.,4.8,0.,4.8,0.,4.8,0.,4.8
1981-08-24 06:49:55.370 ,4,0,0.,4.8,0.,4.8,0.,4.8,0.,4.8
1981-08-24 06:50:00.170 ,5,0,0.,4.8,0.,4.8,0.,4.8,0.,4.8
1981-08-24 06:50:04.970 ,5,0,0.,4.8,0.,4.8,0.,4.8,0.,4.8
1981-08-24 06:50:09.770 ,5,0,0.,4.8,0.,4.8,0.,4.8,0.,4.8
1981-08-24 06:50:14.570 ,5,0,0.,4.8,0.,4.8,0.,4.8,0.,4.8
1981-08-24 06:50:19.370 ,5,0,0.,4.8,0.,4.8,0.,4.8,0.,4.8
1981-08-24 06:50:24.170 ,6,0,0.,4.8,0.,4.8,0.,4.8,0.,4.8
1981-08-24 06:50:28.970 ,6,0,0.,4.8,0.,4.8,0.,4.8,0.,4.8
1981-08-24 06:50:33.770 ,6,0,0.,4.8,0.,4.8,0.,4.8,0.,4.8
1981-08-24 06:50:38.570 ,6,0,0.,4.8,0.,4.8,0.,4.8,0.,4.8
1981-08-24 06:50:43.370 ,6,0,0.,4.8,0.,4.8,0.,4.8,0.,4.8
1981-08-24 06:50:48.170 ,7,0,0.,4.8,0.,4.8,0.,4.8,0.,4.8
1981-08-24 06:50:52.970 ,7,0,0.,4.8,0.,4.8,0.,4.8,0.,4.8
1981-08-24 06:50:57.770 ,7,0,0.,4.8,0.,4.8,0.,4.8,0.,4.8
1981-08-24 06:51:02.570 ,7,0,0.,4.8,0.,4.8,0.,4.8,0.,4.8
1981-08-24 06:51:07.370 ,7,0,0.,4.8,0.,4.8,0.,4.8,0.,4.8
1981-08-24 06:51:12.170 ,7,0,0.,4.8,0.,4.8,0.,4.8,0.,4.8
1981-08-24 06:51:16.970 ,7,0,0.,4.8,0.,4.8,0.,4.8,0.,4.8
1981-08-24 06:51:21.770 ,7,0,0.,4.8,0.,4.8,0.,4.8,0.,4.8
1981-08-24 06:51:26.570 ,7,0,0.,4.8,0.,4.8,0.,4.8,0.,4.8
1981-08-24 06:51:31.370 ,7,0,0.,4.8,0.,4.8,0.,4.8,0.,4.8
1981-08-24 06:51:36.170 ,7,0,0.,4.8,0.,4.8,0.,4.8,0.,4.8
1981-08-24 06:51:40.970 ,7,0,0.,4.8,0.,4.8,0.,4.8,0.,4.8
1981-08-24 06:51:45.770 ,7,0,0.,4.8,0.,4.8,0.,4.8,0.,4.8
1981-08-24 06:51:50.570 ,7,0,0.,4.8,0.,4.8,0.,4.8,0.,4.8
1981-08-24 06:51:55.370 ,7,0,0.,4.8,0.,4.8,0.,4.8,0.,4.8
1981-08-24 06:52:00.170 ,6,0,0.,4.8,0.,4.8,0.,4.8,0.,4.8
1981-08-24 06:52:04.970 ,6,0,0.,4.8,0.,4.8,0.,4.8,0.,4.8
1981-08-24 06:52:09.770 ,6,0,0.,4.8,0.,4.8,0.,4.8,0.,4.8
1981-08-24 06:52:14.570 ,6,0,0.,4.8,0.,4.8,0.,4.8,0.,4.8
1981-08-24 06:52:19.370 ,6,0,0.,4.8,0.,4.8,0.,4.8,0.,4.8
1981-08-24 06:52:24.170 ,6,0,0.,4.8,0.,4.8,0.,4.8,0.,4.8
1981-08-24 06:52:28.970 ,6,0,0.,4.8,0.,4.8,0.,4.8,0.,4.8
1981-08-24 06:52:33.770 ,6,0,0.,4.8,0.,4.8,0.,4.8,0.,4.8
1981-08-24 06:52:38.570 ,6,0,0.,4.8,0.,4.8,0.,4.8,0.,4.8
1981-08-24 06:52:43.370 ,6,0,0.,4.8,0.,4.8,0.,4.8,0.,4.8
1981-08-24 06:52:48.170 ,5,0,0.,4.8,0.,4.8,0.,4.8,0.,4.8
1981-08-24 06:52:52.970 ,5,0,0.,4.8,0.,4.8,0.,4.8,0.,4.8
1981-08-24 06:52:57.770 ,5,0,0.,4.8,0.,4.8,0.,4.8,0.,4.8
1981-08-24 06:53:02.570 ,5,0,0.,4.8,0.,4.8,0.,4.8,0.,4.8
1981-08-24 06:53:07.370 ,5,0,0.,4.8,0.,4.8,0.,4.8,0.,4.8
1981-08-24 06:53:12.170 ,5,0,0.,4.8,0.,4.8,0.,4.8,0.,4.8
1981-08-24 06:53:16.970 ,5,0,0.,4.8,0.,4.8,0.,4.8,0.,4.8
1981-08-24 06:53:21.770 ,5,0,0.,4.8,0.,4.8,0.,4.8,0.,4.8
1981-08-24 06:53:26.570 ,5,0,0.,4.8,0.,4.8,0.,4.8,0.,4.8
1981-08-24 06:53:31.370 ,5,0,0.,4.8,0.,4.8,0.,4.8,0.,4.8
1981-08-24 06:53:36.170 ,4,0,0.,4.8,0.,4.8,0.,4.8,0.,4.8
1981-08-24 06:53:40.970 ,4,0,0.,4.8,0.,4.8,0.,4.8,0.,4.8
1981-08-24 06:53:45.770 ,4,0,0.,4.8,0.,4.8,0.,4.8,0.,4.8
1981-08-24 06:53:50.570 ,4,0,0.,4.8,0.,4.8,0.,4.8,0.,4.8
1981-08-24 06:53:55.370 ,4,0,0.,4.8,0.,4.8,0.,4.8,0.,4.8
1981-08-24 06:54:00.170 ,4,0,0.,4.8,0.,4.8,0.,4.8,0.,4.8
1981-08-24 06:54:04.970 ,4,0,0.,4.8,0.,4.8,0.,4.8,0.,4.8
1981-08-24 06:54:09.770 ,4,0,0.,4.8,0.,4.8,0.,4.8,0.,4.8
1981-08-24 06:54:14.570 ,4,0,0.,4.8,0.,4.8,0.,4.8,0.,4.8
1981-08-24 06:54:19.370 ,4,0,0.,4.8,0.,4.8,0.,4.8,0.,4.8
1981-08-24 06:54:24.170 ,3,0,0.,4.8,0.,4.8,0.,4.8,0.,4.8
1981-08-24 06:54:28.970 ,3,0,0.,4.8,0.,4.8,0.,4.8,0.,4.8
1981-08-24 06:54:33.770 ,3,0,0.,4.8,0.,4.8,0.,4.8,0.,4.8
1981-08-24 06:54:38.570 ,3,0,0.,4.8,0.,4.8,0.,4.8,0.,4.8
1981-08-24 06:54:43.370 ,3,0,0.,4.8,0.,4.8,0.,4.8,0.,4.8
1981-08-24 06:54:48.170 ,3,0,0.,4.8,0.,4.8,0.,4.8,0.,4.8
1981-08-24 06:54:52.970 ,3,0,0.,4.8,0.,4.8,0.,4.8,0.,4.8
1981-08-24 06:54:57.770 ,3,0,0.,4.8,0.,4.8,0.,4.8,0.,4.8
1981-08-24 06:55:02.570 ,3,0,0.,4.8,0.,4.8,0.,4.8,0.,4.8
1981-08-24 06:55:07.370 ,3,0,0.,4.8,0.,4.8,0.,4.8,0.,4.8
1981-08-24 06:55:12.170 ,2,0,0.,4.8,0.,4.8,0.,4.8,0.,4.8
1981-08-24 06:55:16.970 ,2,0,0.,4.8,0.,4.8,0.,4.8,0.,4.8
1981-08-24 06:55:21.770 ,2,0,0.,4.8,0.,4.8,0.,4.8,0.,4.8
1981-08-24 06:55:26.570 ,2,0,0.,4.8,0.,4.8,0.,4.8,0.,4.8
1981-08-24 06:55:31.370 ,2,0,0.,4.8,0.,4.8,0.,4.8,0.,4.8
1981-08-24 06:55:36.170 ,2,0,0.,4.8,0.,4.8,0.,4.8,0.,4.8
1981-08-24 06:55:40.970 ,2,0,0.,4.8,0.,4.8,0.,4.8,0.,4.8
1981-08-24 06:55:45.770 ,2,0,0.,4.8,0.,4.8,0.,4.8,0.,4.8
1981-08-24 06:55:50.570 ,2,0,0.,4.8,0.,4.8,0.,4.8,0.,4.8
1981-08-24 06:55:55.370 ,2,0,0.,4.8,0.,4.8,0.,4.8,0.,4.8
1981-08-24 06:56:00.170 ,1,0,0.,4.8,0.,4.8,0.,4.8,0.,4.8
1981-08-24 06:56:04.970 ,1,0,0.,4.8,0.,4.8,0.,4.8,0.,4.8
1981-08-24 06:56:09.770 ,1,0,0.,4.8,0.,4.8,0.,4.8,0.,4.8
1981-08-24 06:56:14.570 ,1,0,0.,4.8,0.,4.8,0.,4.8,0.,4.8
1981-08-24 06:56:19.370 ,1,0,0.,4.8,0.,4.8,0.,4.8,0.,4.8
1981-08-24 06:56:24.170 ,1,0,0.,4.8,0.,4.8,0.,4.8,0.,4.8
1981-08-24 06:56:28.970 ,1,0,0.,4.8,0.,4.8,0.,4.8,0.,4.8
1981-08-24 06:56:33.770 ,1,0,0.,4.8,0.,4.8,0.,4.8,0.,4.8
1981-08-24 06:56:38.570 ,1,0,0.,4.8,0.,4.8,0.,4.8,0.,4.8
1981-08-24 06:56:43.370 ,1,0,0.,4.8,0.,4.8,0.,4.8,0.,4.8
1981-08-24 06:56:48.170 ,0,0,0.,4.8,0.,4.8,0.,4.8,0.,4.8
1981-08-24 06:56:52.970 ,0,0,0.,4.8,0.,4.8,0.,4.8,0.,4.8
1981-08-24 06:56:57.770 ,0,0,0.,4.8,0.,4.8,0.,4.8,0.,4.8
1981-08-24 06:57:02.570 ,0,0,0.,4.8,0.,4.8,0.,4.8,0.,4.8